Location: Borealis Mine
(38.3824°N, 118.7610°W)
Time: 23:43:10
(UTC+00:00)

Hubble Space Telescope - Visible Passes

Search period start: 26 January 2022 00:00
Search period end: 05 February 2022 00:00
Orbit: 534 x 538 km, 28.5° (Epoch: 26 January)

Date Brightness Start Highest point End Pass type
(mag) Time Alt. Az. Time Alt. Az. Time Alt. Az.
01 Feb 3.2 02:17:23 10° S 02:18:53 12° SSE 02:20:25 10° SE visible
01 Feb 3.7 03:56:21 10° SW 03:56:38 11° SW 03:56:38 11° SW visible
02 Feb 3.1 02:05:26 10° SSW 02:07:30 14° SSE 02:09:34 10° SE visible
02 Feb 3.3 03:44:56 10° SW 03:46:05 15° SSW 03:46:05 15° SSW visible
03 Feb 3.0 01:53:41 10° SSW 01:56:06 15° SSE 01:58:32 10° SE visible
03 Feb 3.0 03:33:32 10° SW 03:35:30 18° SSW 03:35:30 18° SSW visible
04 Feb 3.0 01:42:03 10° SSW 01:44:43 17° S 01:47:24 10° SE visible
04 Feb 2.7 03:22:11 10° SW 03:24:56 20° S 03:24:56 20° S visible
